Khon Kaen, Thailand

6:24 AM ICT on February 20, 2017 (GMT +0700)
Khon Kaen

Weather History for VTUK - October, 2012

Change the Weather History Date:

Monday, October 1, 2012

  Actual Average Record
Temperature  
Mean Temperature 80 °F -  
Max Temperature 89 °F 89 °F - ()
Min Temperature 72 °F 72 °F - ()
Cooling Degree Days 16    
Growing Degree Days 30 (Base 50)    
Moisture  
Dew Point 73 °F    
Average Humidity 73    
Maximum Humidity 100    
Minimum Humidity 45    
Precipitation  
Precipitation 0.00 in 0.14 in - ()
Sea Level Pressure  
Sea Level Pressure 29.89 in    
Wind  
Wind Speed 2 mph ()    
Max Wind Speed 6 mph    
Max Gust Speed -    
Visibility 3.8 miles    
Events      
T = Trace of Precipitation, MM = Missing Value Source: Averaged Metar Reports

Daily Weather History Graph

Daily Weather History Graph

Search for Another Location

Airport or City:

Trip Planner

Search our weather history database for the weather conditions in past years. The results will help you decide how hot, cold, wet, or windy it might be!

Date:

Astronomy

Oct. 01, 2012 Rise Set
Actual Time 5:58 AM ICT 5:57 PM ICT
Civil Twilight 5:37 AM ICT 6:19 PM ICT
Nautical Twilight 5:12 AM ICT 6:44 PM ICT
Astronomical Twilight 4:47 AM ICT 7:09 PM ICT
Moon 6:36 PM ICT (10/1) 6:40 AM ICT (10/1)
Length of Visible Light 12h 42m
Length of Day
11h 58m
Full, 99% of the Moon is Illuminated
Oct 1
Full
Oct 8
Last Quarter
Oct 15
New
Oct 22
First Quarter
Oct 30
Full

Hourly Weather History & Observations

Time (ICT) Temp. Heat Index Dew Point Humidity Pressure Visibility Wind Dir Wind Speed Gust Speed Precip Events Conditions
1:00 AM 76 °F - 70 °F 75% 29.87 in 4 mi Calm Calm - -   Mist
6:00 AM 73.4 °F - 73.4 °F 100% 29.89 in 1.9 mi NNE 3.5 mph - N/A   Mist
7:00 AM 74 °F - 71 °F 88% 29.91 in 1 mi Calm Calm - -   Mist
7:00 AM 73.4 °F - 73.4 °F 100% 29.92 in 1.2 mi Variable 2.3 mph - N/A   Mostly Cloudy
8:00 AM 77.0 °F - 73.4 °F 89% 29.95 in 1.9 mi North 3.5 mph - N/A   Mist
9:00 AM 80.6 °F 86.2 °F 75.2 °F 84% 29.98 in 3.1 mi NE 4.6 mph - N/A   Mist
10:00 AM 84.2 °F 90.9 °F 73.4 °F 70% 29.98 in 3.1 mi Variable 3.5 mph - N/A   Mist
11:00 AM 86.0 °F 93.4 °F 73.4 °F 66% 29.95 in 4.3 mi Variable 3.5 mph - N/A   Scattered Clouds
12:00 PM 86.0 °F 93.4 °F 73.4 °F 66% 29.92 in 4.3 mi North 4.6 mph - N/A   Mostly Cloudy
1:00 PM 87 °F - 69 °F 45% 29.86 in 4 mi NE 4.6 mph - -   Haze
1:00 PM 87.8 °F 95.6 °F 73.4 °F 62% 29.89 in 4.3 mi Variable 3.5 mph - N/A   Mostly Cloudy
2:00 PM 86.0 °F 93.4 °F 73.4 °F 66% 29.86 in 5.0 mi Variable 3.5 mph - N/A   Mostly Cloudy
3:00 PM 87.8 °F 93.8 °F 71.6 °F 58% 29.83 in 5.0 mi North 5.8 mph - N/A   Mostly Cloudy
4:00 PM 87.8 °F 93.8 °F 71.6 °F 58% 29.80 in 5.6 mi Variable 4.6 mph - N/A   Mostly Cloudy
5:00 PM 87.8 °F 93.8 °F 71.6 °F 58% 29.80 in 5.6 mi Variable 3.5 mph - N/A   Mostly Cloudy
6:00 PM 84.2 °F 89.6 °F 71.6 °F 66% 29.83 in 4.3 mi East 2.3 mph - N/A   Unknown
7:00 PM 81 °F - 71 °F 65% 29.84 in 5 mi East 2.3 mph - -   Mist
7:00 PM 82.4 °F 88.2 °F 73.4 °F 74% 29.86 in 5.0 mi ESE 3.5 mph - N/A   Mostly Cloudy
8:00 PM 78.8 °F - 75.2 °F 89% 29.89 in 3.7 mi Calm Calm - N/A   Unknown